INSAT-3DR (41752 NORAD) Tracking and Keplerian Element Data

This shows tracking and keplerian element data for the satellite.

Feedback or suggestion? Click here.




ElementValue
Catalog41752
NameINSAT-3DR
Epoch Orbit1843
Epoch Day261.88293035
Epoch Year2021
RAAN96.17
Inclination0.0601
Eccentricity0.0011248
Argument of Perigee165.5191
Mean Anonmoly128.1761
Mean Motion1.00272022
Decay Rate-1.01E-06
L11 41752U 16054A 21261.88293035 -.00000101 00000-0 00000-0 0 9998
L22 41752 0.0601 96.1700 0011248 165.5191 128.1761 1.00272022 18433

Live tracking and technical data element details for INSAT-3DR (NORAD 41752). INSAT-3DR can be tracked NOW for your location showing map with azimuth and elevation plus other details from your city location.

Track the satellite on the map from your city or location and see movement details for azimuth, elevation, latitude, longitude, range, height, and movement on the map or in text.







IsCatalogInMostPopularTable: catalog: 41752, numindb: 521
Update: records affected: 1



GetName: 41752 INSAT-3DR

Hit Count: updated at: Sun, 26 Sep 2021 00:58:14 GMT